Regional Weather Roundup
Issued by NWS Charleston, WV

Home | Current Version | Previous Version | Graphics & Text | Print | Product List | Glossary On
Versions: 1 2 3 4 5 6 7 8 9 10 11 12 13 14 15 16 17 18 19 20 21 22 23 24 25 26 27
000
ASUS41 KRLX 260610
RWRRLX
West Virginia Regional Weather Roundup
National Weather Service Charleston WV
200 AM EDT TUE SEP 26 2017

Note: "fair" indicates few or no clouds below 12,000 feet with no
significant weather and/or obstructions to visibility.

WVZ003-260700-
Northern Panhandle of West Virginia

CITY           SKY/WX    TMP DP  RH WIND       PRES   REMARKS
WHEELING       CLOUDY    65  62  90 E5        30.03S
$$

WVZ009-260700-
Northwest West Virginia

CITY           SKY/WX    TMP DP  RH WIND       PRES   REMARKS
PARKERSBURG    MOCLDY    65  64  97 CALM      30.04R
$$

WVZ006-260700-
Western West Virginia

CITY           SKY/WX    TMP DP  RH WIND       PRES   REMARKS
HUNTINGTON     PTCLDY    65  63  93 CALM      30.01R
$$

WVZ015-260700-
West Central West Virginia

CITY           SKY/WX    TMP DP  RH WIND       PRES   REMARKS
CHARLESTON     CLEAR     63  61  93 CALM      30.01S
$$

WVZ022-031-260700-
North Central West Virginia

CITY           SKY/WX    TMP DP  RH WIND       PRES   REMARKS
CLARKSBURG     MOCLDY    64  63  96 CALM      30.04R FOG
MORGANTOWN     PTCLDY    68  65  90 NW3       30.05R
$$

WVZ025-035-042-045-260700-
Southern West Virginia

CITY           SKY/WX    TMP DP  RH WIND       PRES   REMARKS
BECKLEY        CLEAR     61  59  93 CALM      30.09S
LOGAN            N/A     66  63  88 CALM      30.04S
BLUEFIELD      CLEAR     64  58  80 N3        30.11S
LEWISBURG      MOCLDY    60  59  97 CALM      30.09S FOG
$$

WVZ047-260700-
Northern Mountains of West Virginia

CITY           SKY/WX    TMP DP  RH WIND       PRES   REMARKS
ELKINS         FOG       60  57  89 CALM      30.09S VSB 1/4
$$

WVZ052-260700-
Eastern Panhandle of West Virginia

CITY           SKY/WX    TMP DP  RH WIND       PRES   REMARKS
MARTINSBURG    CLEAR     69  66  90 E3        30.01S
PETERSBURG     FOG       65  65  99 CALM      30.05R VSB 3/4
$$




USA.gov is the U.S. government's official web portal to all federal, state and local government web resources and services.